75.0120; 168.6530;1; 393.525; 266.125;1981.05.14 12:00:00;-999.0;-999.0;-999.0; 999.0;    .000;    .000;   0.000; 90;
75.0088; 168.7060;2; 393.589; 265.985;1981.05.14 18:00:00;-999.0;-999.0;-999.0; 999.0;   1.567;    .250;   0.261;103;
75.0055; 168.7590;2; 393.654; 265.844;1981.05.15 00:00:00;-999.0;-999.0;-999.0; 999.0;   3.134;    .500;   0.261;103;
75.0023; 168.8120;2; 393.718; 265.703;1981.05.15 06:00:00;-999.0;-999.0;-999.0; 999.0;   4.701;    .750;   0.261;103;
74.9990; 168.8650;2; 393.782; 265.563;1981.05.15 12:00:00;-999.0;-999.0;-999.0; 999.0;   6.268;   1.000;   0.261;103;
74.9955; 168.9183;2; 393.849; 265.422;1981.05.15 18:00:00;-999.0;-999.0;-999.0; 999.0;   7.850;   1.250;   0.264;104;
74.9920; 168.9716;2; 393.916; 265.280;1981.05.16 00:00:00;-999.0;-999.0;-999.0; 999.0;   9.432;   1.500;   0.264;104;
74.9885; 169.0248;2; 393.982; 265.139;1981.05.16 06:00:00;-999.0;-999.0;-999.0; 999.0;  11.014;   1.750;   0.264;104;
74.9850; 169.0780;2; 394.049; 264.998;1981.05.16 12:00:00;-999.0;-999.0;-999.0; 999.0;  12.596;   2.000;   0.264;104;
74.9815; 169.1310;2; 394.115; 264.857;1981.05.16 18:00:00;-999.0;-999.0;-999.0; 999.0;  14.172;   2.250;   0.263;104;
74.9780; 169.1841;2; 394.181; 264.717;1981.05.17 00:00:00;-999.0;-999.0;-999.0; 999.0;  15.748;   2.500;   0.263;104;
74.9745; 169.2370;2; 394.247; 264.576;1981.05.17 06:00:00;-999.0;-999.0;-999.0; 999.0;  17.325;   2.750;   0.263;104;
74.9710; 169.2900;2; 394.313; 264.435;1981.05.17 12:00:00;-999.0;-999.0;-999.0; 999.0;  18.901;   3.000;   0.263;104;
74.9770; 169.3312;2; 394.270; 264.307;1981.05.17 18:00:00;-999.0;-999.0;-999.0; 999.0;  20.264;   3.250;   0.227; 61;
74.9830; 169.3724;2; 394.227; 264.180;1981.05.18 00:00:00;-999.0;-999.0;-999.0; 999.0;  21.627;   3.500;   0.227; 61;
74.9890; 169.4137;2; 394.184; 264.053;1981.05.18 06:00:00;-999.0;-999.0;-999.0; 999.0;  22.990;   3.750;   0.227; 61;
74.9950; 169.4550;2; 394.141; 263.925;1981.05.18 12:00:00;-999.0;-999.0;-999.0; 999.0;  24.353;   4.000;   0.227; 61;
75.0215; 169.4555;2; 393.855; 263.871;1981.05.18 18:00:00;-999.0;-999.0;-999.0; 999.0;  27.299;   4.250;   0.491;  0;
75.0480; 169.4560;2; 393.570; 263.816;1981.05.19 00:00:00;-999.0;-999.0;-999.0; 999.0;  30.245;   4.500;   0.491;  0;
75.0745; 169.4565;2; 393.284; 263.762;1981.05.19 06:00:00;-999.0;-999.0;-999.0; 999.0;  33.193;   4.750;   0.491;  0;
75.1010; 169.4570;2; 392.999; 263.707;1981.05.19 12:00:00;-999.0;-999.0;-999.0; 999.0;  36.139;   5.000;   0.491;  0;
75.1117; 169.4495;2; 392.879; 263.706;1981.05.19 18:00:00;-999.0;-999.0;-999.0; 999.0;  37.353;   5.250;   0.202;350;
75.1225; 169.4420;2; 392.759; 263.705;1981.05.20 00:00:00;-999.0;-999.0;-999.0; 999.0;  38.568;   5.500;   0.202;350;
75.1332; 169.4345;2; 392.639; 263.704;1981.05.20 06:00:00;-999.0;-999.0;-999.0; 999.0;  39.782;   5.750;   0.202;350;
75.1440; 169.4270;2; 392.519; 263.704;1981.05.20 12:00:00;-999.0;-999.0;-999.0; 999.0;  40.996;   6.000;   0.202;350;
75.1545; 169.4193;2; 392.402; 263.704;1981.05.20 18:00:00;-999.0;-999.0;-999.0; 999.0;  42.185;   6.250;   0.198;349;
75.1650; 169.4115;2; 392.285; 263.704;1981.05.21 00:00:00;-999.0;-999.0;-999.0; 999.0;  43.373;   6.500;   0.198;349;
75.1755; 169.4038;2; 392.168; 263.704;1981.05.21 06:00:00;-999.0;-999.0;-999.0; 999.0;  44.561;   6.750;   0.198;349;
75.1860; 169.3960;2; 392.051; 263.705;1981.05.21 12:00:00;-999.0;-999.0;-999.0; 999.0;  45.749;   7.000;   0.198;349;
75.1967; 169.3873;2; 391.930; 263.707;1981.05.21 18:00:00;-999.0;-999.0;-999.0; 999.0;  46.970;   7.250;   0.203;348;
75.2075; 169.3785;2; 391.810; 263.709;1981.05.22 00:00:00;-999.0;-999.0;-999.0; 999.0;  48.191;   7.500;   0.203;348;
75.2182; 169.3698;2; 391.690; 263.712;1981.05.22 06:00:00;-999.0;-999.0;-999.0; 999.0;  49.412;   7.750;   0.203;348;
75.2290; 169.3610;2; 391.569; 263.714;1981.05.22 12:00:00;-999.0;-999.0;-999.0; 999.0;  50.633;   8.000;   0.203;348;
75.2395; 169.3533;2; 391.452; 263.714;1981.05.22 18:00:00;-999.0;-999.0;-999.0; 999.0;  51.821;   8.250;   0.198;349;
75.2500; 169.3455;2; 391.335; 263.714;1981.05.23 00:00:00;-999.0;-999.0;-999.0; 999.0;  53.009;   8.500;   0.198;349;
75.2605; 169.3378;2; 391.218; 263.714;1981.05.23 06:00:00;-999.0;-999.0;-999.0; 999.0;  54.197;   8.750;   0.198;349;
75.2710; 169.3300;2; 391.101; 263.714;1981.05.23 12:00:00;-999.0;-999.0;-999.0; 999.0;  55.385;   9.000;   0.198;349;
75.2810; 169.3198;2; 390.987; 263.722;1981.05.23 18:00:00;-999.0;-999.0;-999.0; 999.0;  56.534;   9.250;   0.191;345;
75.2910; 169.3095;2; 390.874; 263.729;1981.05.24 00:00:00;-999.0;-999.0;-999.0; 999.0;  57.683;   9.500;   0.192;345;
75.3010; 169.2993;2; 390.761; 263.737;1981.05.24 06:00:00;-999.0;-999.0;-999.0; 999.0;  58.832;   9.750;   0.192;345;
75.3110; 169.2890;2; 390.648; 263.745;1981.05.24 12:00:00;-999.0;-999.0;-999.0; 999.0;  59.981;  10.000;   0.191;345;
75.3165; 169.2643;2; 390.576; 263.801;1981.05.24 18:00:00;-999.0;-999.0;-999.0; 999.0;  60.908;  10.250;   0.155;311;
75.3220; 169.2395;2; 390.504; 263.857;1981.05.25 00:00:00;-999.0;-999.0;-999.0; 999.0;  61.836;  10.500;   0.155;311;
75.3275; 169.2148;2; 390.432; 263.914;1981.05.25 06:00:00;-999.0;-999.0;-999.0; 999.0;  62.763;  10.750;   0.154;311;
75.3330; 169.1900;2; 390.360; 263.970;1981.05.25 12:00:00;-999.0;-999.0;-999.0; 999.0;  63.691;  11.000;   0.155;311;
75.3418; 169.1743;2; 390.258; 263.995;1981.05.25 18:00:00;-999.0;-999.0;-999.0; 999.0;  64.760;  11.250;   0.178;336;
75.3505; 169.1585;2; 390.155; 264.019;1981.05.26 00:00:00;-999.0;-999.0;-999.0; 999.0;  65.829;  11.500;   0.178;336;
75.3593; 169.1428;2; 390.053; 264.044;1981.05.26 06:00:00;-999.0;-999.0;-999.0; 999.0;  66.898;  11.750;   0.178;336;
75.3680; 169.1270;2; 389.950; 264.069;1981.05.26 12:00:00;-999.0;-999.0;-999.0; 999.0;  67.967;  12.000;   0.178;335;
75.3840; 169.1350;2; 389.782; 264.014;1981.05.26 18:00:00;-999.0;-999.0;-999.0; 999.0;  69.760;  12.250;   0.299;  7;
75.4000; 169.1430;2; 389.614; 263.960;1981.05.27 00:00:00;-999.0;-999.0;-999.0; 999.0;  71.554;  12.500;   0.299;  7;
75.4160; 169.1510;2; 389.446; 263.905;1981.05.27 06:00:00;-999.0;-999.0;-999.0; 999.0;  73.347;  12.750;   0.299;  7;
75.4320; 169.1590;2; 389.278; 263.850;1981.05.27 12:00:00;-999.0;-999.0;-999.0; 999.0;  75.140;  13.000;   0.299;  7;
75.4427; 169.1700;2; 389.168; 263.798;1981.05.27 18:00:00;-999.0;-999.0;-999.0; 999.0;  76.374;  13.250;   0.206; 14;
75.4535; 169.1810;2; 389.058; 263.746;1981.05.28 00:00:00;-999.0;-999.0;-999.0; 999.0;  77.608;  13.500;   0.206; 14;
75.4642; 169.1920;2; 388.948; 263.695;1981.05.28 06:00:00;-999.0;-999.0;-999.0; 999.0;  78.842;  13.750;   0.206; 14;
75.4750; 169.2030;2; 388.838; 263.643;1981.05.28 12:00:00;-999.0;-999.0;-999.0; 999.0;  80.076;  14.000;   0.206; 14;
75.4928; 169.2389;2; 388.665; 263.510;1981.05.28 18:00:00;-999.0;-999.0;-999.0; 999.0;  82.290;  14.250;   0.369; 27;
75.5105; 169.2748;2; 388.492; 263.376;1981.05.29 00:00:00;-999.0;-999.0;-999.0; 999.0;  84.503;  14.500;   0.369; 27;
75.5283; 169.3109;2; 388.320; 263.243;1981.05.29 06:00:00;-999.0;-999.0;-999.0; 999.0;  86.717;  14.750;   0.369; 27;
75.5460; 169.3470;2; 388.147; 263.110;1981.05.29 12:00:00;-999.0;-999.0;-999.0; 999.0;  88.930;  15.000;   0.369; 27;
75.5622; 169.3600;2; 387.979; 263.042;1981.05.29 18:00:00;-999.0;-999.0;-999.0; 999.0;  90.772;  15.250;   0.307; 11;
75.5785; 169.3729;2; 387.810; 262.975;1981.05.30 00:00:00;-999.0;-999.0;-999.0; 999.0;  92.614;  15.500;   0.307; 11;
75.5947; 169.3860;2; 387.642; 262.907;1981.05.30 06:00:00;-999.0;-999.0;-999.0; 999.0;  94.457;  15.750;   0.307; 11;
75.6110; 169.3990;2; 387.473; 262.839;1981.05.30 12:00:00;-999.0;-999.0;-999.0; 999.0;  96.300;  16.000;   0.307; 11;
75.6332; 169.4119;2; 387.240; 262.760;1981.05.30 18:00:00;-999.0;-999.0;-999.0; 999.0;  98.799;  16.250;   0.417;  8;
75.6555; 169.4249;2; 387.007; 262.680;1981.05.31 00:00:00;-999.0;-999.0;-999.0; 999.0; 101.299;  16.500;   0.417;  8;
75.6777; 169.4379;2; 386.774; 262.601;1981.05.31 06:00:00;-999.0;-999.0;-999.0; 999.0; 103.799;  16.750;   0.417;  8;
75.7000; 169.4510;2; 386.541; 262.522;1981.05.31 12:00:00;-999.0;-999.0;-999.0; 999.0; 106.299;  17.000;   0.417;  8;
75.7288; 169.4458;2; 386.228; 262.478;1981.05.31 18:00:00;-999.0;-999.0;-999.0; 999.0; 109.499;  17.250;   0.533;357;
75.7575; 169.4405;2; 385.916; 262.434;1981.06.01 00:00:00;-999.0;-999.0;   7.0; 130.0; 112.699;  17.500;   0.533;357;
75.7862; 169.4353;2; 385.604; 262.390;1981.06.01 06:00:00;  -2.2;1019.3;   9.0; 130.0; 115.899;  17.750;   0.533;357;
75.8150; 169.4300;2; 385.292; 262.346;1981.06.01 12:00:00;  -3.2;1018.7;   9.0; 120.0; 119.100;  18.000;   0.533;357;
75.8420; 169.4004;2; 384.987; 262.370;1981.06.01 18:00:00;  -3.8;1017.7;   8.0; 140.0; 122.209;  18.250;   0.518;345;
75.8690; 169.3707;2; 384.682; 262.394;1981.06.02 00:00:00;  -0.6;1016.5;   8.0; 120.0; 125.318;  18.500;   0.518;345;
75.8960; 169.3409;2; 384.376; 262.417;1981.06.02 06:00:00;   1.2;1015.1;   8.0; 130.0; 128.427;  18.750;   0.518;345;
75.9230; 169.3110;2; 384.071; 262.441;1981.06.02 12:00:00;  -0.2;1015.3;   8.0; 140.0; 131.535;  19.000;   0.518;345;
75.9493; 169.2628;2; 383.765; 262.514;1981.06.02 18:00:00;  -0.7;1015.3;   7.0; 130.0; 134.734;  19.250;   0.533;336;
75.9755; 169.2144;2; 383.458; 262.586;1981.06.03 00:00:00;   0.8;1015.9;   6.0; 120.0; 137.931;  19.500;   0.533;336;
76.0018; 169.1658;2; 383.152; 262.659;1981.06.03 06:00:00;  -0.7;1015.9;   7.0; 130.0; 141.130;  19.750;   0.533;336;
76.0280; 169.1170;2; 382.846; 262.731;1981.06.03 12:00:00;  -2.0;1015.9;   6.0; 130.0; 144.328;  20.000;   0.533;336;
76.0420; 169.1008;2; 382.687; 262.744;1981.06.03 18:00:00;  -1.7;1015.6;   6.0; 130.0; 145.944;  20.250;   0.269;344;
76.0560; 169.0846;2; 382.528; 262.758;1981.06.04 00:00:00;   0.8;1015.2;   5.0; 130.0; 147.560;  20.500;   0.269;344;
76.0700; 169.0683;2; 382.370; 262.771;1981.06.04 06:00:00;   0.3;1014.4;   5.0; 150.0; 149.177;  20.750;   0.269;344;
76.0840; 169.0520;2; 382.211; 262.784;1981.06.04 12:00:00;  -1.2;1014.2;   5.0; 190.0; 150.793;  21.000;   0.269;344;
76.0912; 169.0470;2; 382.131; 262.781;1981.06.04 18:00:00;  -1.7;1014.2;   5.0; 210.0; 151.610;  21.250;   0.136;351;
76.0985; 169.0420;2; 382.050; 262.779;1981.06.05 00:00:00;   0.4;1013.7;   4.0; 200.0; 152.428;  21.500;   0.136;351;
76.1058; 169.0370;2; 381.970; 262.777;1981.06.05 06:00:00;   0.2;1013.3;   3.0; 210.0; 153.245;  21.750;   0.136;351;
76.1130; 169.0320;2; 381.890; 262.775;1981.06.05 12:00:00;   0.3;1012.8;   3.0; 210.0; 154.062;  22.000;   0.136;351;
76.1198; 169.0245;2; 381.813; 262.780;1981.06.05 18:00:00;   0.1;1012.5;   7.0; 250.0; 154.839;  22.250;   0.129;345;
76.1265; 169.0170;2; 381.737; 262.785;1981.06.06 00:00:00;   0.5;1012.2;   5.0; 250.0; 155.616;  22.500;   0.129;345;
76.1332; 169.0095;2; 381.661; 262.791;1981.06.06 06:00:00;   0.2;1011.2;   3.0; 270.0; 156.392;  22.750;   0.129;345;
76.1400; 169.0020;2; 381.585; 262.796;1981.06.06 12:00:00;  -2.5;1010.5;   4.0; 300.0; 157.169;  23.000;   0.129;345;
76.1458; 168.9860;2; 381.515; 262.825;1981.06.06 18:00:00;  -2.0;1010.4;   6.0; 270.0; 157.937;  23.250;   0.128;326;
76.1515; 168.9700;2; 381.445; 262.854;1981.06.07 00:00:00;  -1.6;1009.4;   2.0; 250.0; 158.705;  23.500;   0.128;326;
76.1572; 168.9540;2; 381.375; 262.883;1981.06.07 06:00:00;  -1.1;1008.1;   4.0; 150.0; 159.473;  23.750;   0.128;326;
76.1630; 168.9380;2; 381.305; 262.912;1981.06.07 12:00:00;  -2.0;1007.7;   3.0;  70.0; 160.242;  24.000;   0.128;326;
76.1622; 168.9122;2; 381.301; 262.980;1981.06.07 18:00:00;  -2.3;1007.9;   4.0;  40.0; 160.932;  24.250;   0.115;263;
76.1615; 168.8865;2; 381.296; 263.048;1981.06.08 00:00:00;  -0.7;1009.1;   5.0;  60.0; 161.622;  24.500;   0.115;263;
76.1608; 168.8607;2; 381.291; 263.115;1981.06.08 06:00:00;  -1.5;1009.3;   6.0;  20.0; 162.312;  24.750;   0.115;263;
76.1600; 168.8350;2; 381.286; 263.183;1981.06.08 12:00:00;  -2.5;1009.6;   5.0; 360.0; 163.002;  25.000;   0.115;263;
76.1573; 168.8045;2; 381.300; 263.267;1981.06.08 18:00:00;  -2.6;1008.7;   6.0; 330.0; 163.869;  25.250;   0.145;249;
76.1545; 168.7740;2; 381.314; 263.352;1981.06.09 00:00:00;   0.2;1007.2;   5.0; 360.0; 164.736;  25.500;   0.144;249;
76.1518; 168.7435;2; 381.328; 263.436;1981.06.09 06:00:00;  -0.6;1007.0;   4.0; 350.0; 165.604;  25.750;   0.145;249;
76.1490; 168.7130;2; 381.342; 263.520;1981.06.09 12:00:00;  -1.8;1006.5;   5.0; 300.0; 166.471;  26.000;   0.145;249;
76.1563; 168.6943;2; 381.254; 263.553;1981.06.09 18:00:00;  -1.8;1005.2;   5.0; 290.0; 167.419;  26.250;   0.158;328;
76.1635; 168.6755;2; 381.167; 263.585;1981.06.10 00:00:00;  -0.2;1003.9;   3.0;  30.0; 168.366;  26.500;   0.158;328;
76.1708; 168.6568;2; 381.079; 263.618;1981.06.10 06:00:00;  -1.3;1004.5;   3.0; 360.0; 169.315;  26.750;   0.158;328;
76.1780; 168.6380;2; 380.992; 263.650;1981.06.10 12:00:00;  -2.2;1004.7;   3.0;  90.0; 170.262;  27.000;   0.158;328;
76.1875; 168.6101;2; 380.876; 263.701;1981.06.10 18:00:00;  -1.7;1005.4;   3.0; 120.0; 171.553;  27.250;   0.215;325;
76.1970; 168.5821;2; 380.759; 263.752;1981.06.11 00:00:00;  -1.6;1008.1;   5.0; 120.0; 172.845;  27.500;   0.215;325;
76.2065; 168.5541;2; 380.643; 263.803;1981.06.11 06:00:00;  -1.2;1008.7;   3.0;  90.0; 174.136;  27.750;   0.215;325;
76.2160; 168.5260;2; 380.526; 263.854;1981.06.11 12:00:00;  -1.6;1008.6;   3.0; 100.0; 175.428;  28.000;   0.215;325;
76.2298; 168.4751;2; 380.352; 263.954;1981.06.11 18:00:00;  -1.5;1008.9;   5.0; 130.0; 177.467;  28.250;   0.340;319;
76.2435; 168.4242;2; 380.178; 264.054;1981.06.12 00:00:00;  -0.3;1009.7;   6.0; 100.0; 179.505;  28.500;   0.340;319;
76.2573; 168.3732;2; 380.004; 264.154;1981.06.12 06:00:00;  -0.5;1009.5;   6.0;  80.0; 181.544;  28.750;   0.340;319;
76.2710; 168.3220;2; 379.830; 264.254;1981.06.12 12:00:00;  -1.0;1009.9;   9.0; 110.0; 183.583;  29.000;   0.340;319;
76.2865; 168.2605;2; 379.632; 264.376;1981.06.12 18:00:00;  -0.8;1010.1;   7.0; 110.0; 185.952;  29.250;   0.395;317;
76.3020; 168.1988;2; 379.433; 264.497;1981.06.13 00:00:00;  -1.2;1012.0;   8.0;  90.0; 188.322;  29.500;   0.395;317;
76.3175; 168.1370;2; 379.234; 264.619;1981.06.13 06:00:00;  -0.5;1011.5;   7.0;  80.0; 190.691;  29.750;   0.395;317;
76.3330; 168.0750;2; 379.036; 264.741;1981.06.13 12:00:00;  -0.7;1011.5;   8.0;  90.0; 193.060;  30.000;   0.395;317;
76.3515; 167.9963;2; 378.795; 264.898;1981.06.13 18:00:00;  -0.2;1010.2;   6.0;  90.0; 195.979;  30.250;   0.486;315;
76.3700; 167.9174;2; 378.555; 265.055;1981.06.14 00:00:00;   0.5;1009.1;   6.0; 100.0; 198.897;  30.500;   0.486;315;
76.3885; 167.8383;2; 378.314; 265.212;1981.06.14 06:00:00;   0.0;1008.9;   5.0; 130.0; 201.816;  30.750;   0.487;315;
76.4070; 167.7590;2; 378.074; 265.368;1981.06.14 12:00:00;  -0.7;1009.2;   6.0; 130.0; 204.734;  31.000;   0.486;315;
76.4250; 167.6798;2; 377.838; 265.525;1981.06.14 18:00:00;  -0.4;1009.5;   6.0; 130.0; 207.615;  31.250;   0.480;314;
76.4430; 167.6004;2; 377.602; 265.682;1981.06.15 00:00:00;   0.6;1010.3;   5.0; 110.0; 210.495;  31.500;   0.480;314;
76.4610; 167.5208;2; 377.366; 265.839;1981.06.15 06:00:00;   0.1;1009.6;   6.0;  90.0; 213.377;  31.750;   0.480;314;
76.4790; 167.4410;2; 377.130; 265.995;1981.06.15 12:00:00;  -0.1;1009.2;   6.0; 110.0; 216.257;  32.000;   0.480;314;
76.4963; 167.3693;2; 376.905; 266.133;1981.06.15 18:00:00;   0.0;1009.7;   5.0; 120.0; 218.934;  32.250;   0.446;316;
76.5135; 167.2974;2; 376.681; 266.271;1981.06.16 00:00:00;   0.4;1010.3;   5.0; 130.0; 221.611;  32.500;   0.446;316;
76.5308; 167.2253;2; 376.456; 266.408;1981.06.16 06:00:00;   0.3;1011.3;   4.0; 120.0; 224.288;  32.750;   0.446;316;
76.5480; 167.1530;2; 376.232; 266.546;1981.06.16 12:00:00;  -1.2;1011.7;   3.0; 110.0; 226.965;  33.000;   0.446;316;
76.5635; 167.0984;2; 376.036; 266.643;1981.06.16 18:00:00;  -1.3;1009.8;   5.0;  90.0; 229.194;  33.250;   0.372;321;
76.5790; 167.0437;2; 375.839; 266.741;1981.06.17 00:00:00;   0.1;1006.9;   6.0;  70.0; 231.422;  33.500;   0.371;321;
76.5945; 166.9889;2; 375.643; 266.838;1981.06.17 06:00:00;   0.2;1003.8;   8.0;  70.0; 233.651;  33.750;   0.372;321;
76.6100; 166.9340;2; 375.447; 266.936;1981.06.17 12:00:00;  -0.1;1002.2;   6.0;  90.0; 235.880;  34.000;   0.371;321;
76.6255; 166.8779;2; 375.249; 267.035;1981.06.17 18:00:00;  -0.4;1001.8;   5.0; 110.0; 238.129;  34.250;   0.375;320;
76.6410; 166.8218;2; 375.052; 267.135;1981.06.18 00:00:00;   0.0;1000.0;   5.0; 100.0; 240.379;  34.500;   0.375;320;
76.6565; 166.7655;2; 374.855; 267.235;1981.06.18 06:00:00;   0.0;1000.9;   7.0; 160.0; 242.627;  34.750;   0.375;320;
76.6720; 166.7090;2; 374.657; 267.334;1981.06.18 12:00:00;  -0.2;1005.2;   7.0; 180.0; 244.876;  35.000;   0.375;320;
76.6845; 166.6554;2; 374.493; 267.434;1981.06.18 18:00:00;  -0.4;1005.7;   7.0; 160.0; 246.832;  35.250;   0.326;315;
76.6970; 166.6017;2; 374.329; 267.534;1981.06.19 00:00:00;   0.2;1006.1;   8.0; 160.0; 248.787;  35.500;   0.326;315;
76.7095; 166.5479;2; 374.164; 267.634;1981.06.19 06:00:00;   0.0;1005.0;   6.0; 150.0; 250.743;  35.750;   0.326;315;
76.7220; 166.4940;2; 374.000; 267.734;1981.06.19 12:00:00;  -0.2;1005.3;   5.0; 150.0; 252.698;  36.000;   0.326;315;
76.7318; 166.4429;2; 373.866; 267.834;1981.06.19 18:00:00;  -0.9;1005.5;   5.0; 140.0; 254.397;  36.250;   0.283;310;
76.7415; 166.3916;2; 373.733; 267.933;1981.06.20 00:00:00;  -0.3;1008.0;   7.0; 100.0; 256.094;  36.500;   0.283;310;
76.7513; 166.3404;2; 373.599; 268.033;1981.06.20 06:00:00;   0.5;1010.4;   5.0; 140.0; 257.792;  36.750;   0.283;310;
76.7610; 166.2890;2; 373.465; 268.133;1981.06.20 12:00:00;   0.4;1013.8;   5.0; 100.0; 259.490;  37.000;   0.283;310;
76.7708; 166.2386;2; 373.331; 268.230;1981.06.20 18:00:00;   0.8;1015.0;   6.0;  90.0; 261.171;  37.250;   0.280;310;
76.7805; 166.1882;2; 373.198; 268.327;1981.06.21 00:00:00;   0.0;1013.6;   6.0;  80.0; 262.851;  37.500;   0.280;310;
76.7903; 166.1376;2; 373.064; 268.424;1981.06.21 06:00:00;   0.0;1014.1;   7.0; 100.0; 264.532;  37.750;   0.280;310;
76.8000; 166.0870;2; 372.931; 268.522;1981.06.21 12:00:00;   0.0;1016.2;   5.0; 110.0; 266.213;  38.000;   0.280;310;
76.8095; 166.0351;2; 372.799; 268.622;1981.06.21 18:00:00;  -1.0;1014.5;   4.0;  90.0; 267.902;  38.250;   0.282;309;
76.8190; 165.9832;2; 372.666; 268.723;1981.06.22 00:00:00;   0.3;1013.3;   6.0; 110.0; 269.592;  38.500;   0.282;309;
76.8285; 165.9311;2; 372.534; 268.823;1981.06.22 06:00:00;   0.4;1012.4;   5.0; 130.0; 271.282;  38.750;   0.282;309;
76.8380; 165.8790;2; 372.402; 268.924;1981.06.22 12:00:00;  -0.2;1011.6;   5.0; 110.0; 272.970;  39.000;   0.281;309;
76.8478; 165.8269;2; 372.267; 269.023;1981.06.22 18:00:00;  -0.1;1008.9;   5.0; 120.0; 274.680;  39.250;   0.285;309;
76.8575; 165.7747;2; 372.132; 269.123;1981.06.23 00:00:00;   0.2;1006.8;   4.0; 130.0; 276.388;  39.500;   0.285;309;
76.8673; 165.7224;2; 371.997; 269.223;1981.06.23 06:00:00;  -0.1;1004.5;   5.0; 120.0; 278.098;  39.750;   0.285;309;
76.8770; 165.6700;2; 371.862; 269.322;1981.06.23 12:00:00;  -0.4;1002.5;   3.0; 110.0; 279.806;  40.000;   0.285;309;
76.8863; 165.6179;2; 371.731; 269.423;1981.06.23 18:00:00;  -0.5;1001.3;   0.0;   0.0; 281.478;  40.250;   0.279;308;
76.8955; 165.5656;2; 371.601; 269.523;1981.06.24 00:00:00;  -0.1; 999.2;   5.0; 250.0; 283.149;  40.500;   0.279;308;
76.9048; 165.5134;2; 371.471; 269.623;1981.06.24 06:00:00;  -0.3; 999.7;   6.0; 240.0; 284.820;  40.750;   0.279;308;
76.9140; 165.4610;2; 371.341; 269.723;1981.06.24 12:00:00;  -0.5;1000.2;   7.0; 240.0; 286.492;  41.000;   0.279;308;
76.9160; 165.4510;2; 371.314; 269.742;1981.06.24 18:00:00;  -1.5; 997.7;   5.0; 220.0; 286.827;  41.250;   0.056;311;
76.9180; 165.4410;2; 371.286; 269.760;1981.06.25 00:00:00;  -0.5; 995.6;   0.0;   0.0; 287.163;  41.500;   0.056;311;
76.9200; 165.4310;2; 371.259; 269.778;1981.06.25 06:00:00;  -0.1; 996.2;   5.0; 300.0; 287.499;  41.750;   0.056;311;
76.9220; 165.4210;2; 371.232; 269.797;1981.06.25 12:00:00;  -0.6; 999.3;   7.0; 290.0; 287.835;  42.000;   0.056;311;
76.9143; 165.4683;2; 371.343; 269.705;1981.06.25 18:00:00;  -0.2;1001.7;   7.0; 270.0; 289.304;  42.250;   0.245;126;
76.9065; 165.5156;2; 371.454; 269.613;1981.06.26 00:00:00;  -0.1;1003.2;   5.0; 240.0; 290.773;  42.500;   0.245;126;
76.8988; 165.5628;2; 371.565; 269.521;1981.06.26 06:00:00;  -0.2;1005.0;   5.0; 270.0; 292.243;  42.750;   0.245;126;
76.8910; 165.6100;2; 371.676; 269.429;1981.06.26 12:00:00;  -0.2;1007.0;   7.0; 280.0; 293.712;  43.000;   0.245;126;
76.8773; 165.6725;2; 371.860; 269.316;1981.06.26 18:00:00;  -1.0;1008.7;   8.0; 270.0; 295.906;  43.250;   0.366;134;
76.8635; 165.7348;2; 372.044; 269.203;1981.06.27 00:00:00;  -0.7;1010.4;   9.0; 280.0; 298.099;  43.500;   0.366;134;
76.8498; 165.7970;2; 372.228; 269.090;1981.06.27 06:00:00;   0.1;1012.7;   8.0; 270.0; 300.294;  43.750;   0.366;134;
76.8360; 165.8590;2; 372.411; 268.977;1981.06.27 12:00:00;   0.0;1014.7;   9.0; 270.0; 302.487;  44.000;   0.366;134;
76.8210; 165.8821;2; 372.584; 268.962;1981.06.27 18:00:00;   0.2;1015.6;   9.0; 290.0; 304.254;  44.250;   0.295;161;
76.8060; 165.9051;2; 372.757; 268.946;1981.06.28 00:00:00;   0.1;1016.2;   7.0; 300.0; 306.021;  44.500;   0.295;161;
76.7910; 165.9281;2; 372.930; 268.930;1981.06.28 06:00:00;   0.1;1018.0;   5.0; 310.0; 307.788;  44.750;   0.294;161;
76.7760; 165.9510;2; 373.103; 268.915;1981.06.28 12:00:00;  -0.4;1019.2;   6.0; 360.0; 309.555;  45.000;   0.294;161;
76.7715; 165.9640;2; 373.159; 268.895;1981.06.28 18:00:00;  -0.9;1021.6;   4.0; 360.0; 310.155;  45.250;   0.100;147;
76.7670; 165.9770;2; 373.214; 268.875;1981.06.29 00:00:00;  -1.5;1024.8;   3.0;  20.0; 310.755;  45.500;   0.100;147;
76.7625; 165.9900;2; 373.270; 268.856;1981.06.29 06:00:00;  -1.7;1025.5;   3.0; 360.0; 311.355;  45.750;   0.100;147;
76.7580; 166.0030;2; 373.325; 268.836;1981.06.29 12:00:00;  -2.8;1026.2;   0.0;   0.0; 311.955;  46.000;   0.100;146;
76.7650; 166.0033;2; 373.251; 268.817;1981.06.29 18:00:00;  -3.0;1025.8;   2.0; 360.0; 312.733;  46.250;   0.130;  0;
76.7720; 166.0035;2; 373.177; 268.798;1981.06.30 00:00:00;  -2.1;1025.1;   0.0;   0.0; 313.511;  46.500;   0.130;  0;
76.7790; 166.0038;2; 373.103; 268.779;1981.06.30 06:00:00;  -1.2;1023.9;   2.0; 210.0; 314.289;  46.750;   0.130;  0;
76.7860; 166.0040;2; 373.029; 268.760;1981.06.30 12:00:00;  -0.4;1022.7;   3.0; 210.0; 315.068;  47.000;   0.130;  0;
76.7960; 166.0232;2; 372.935; 268.687;1981.06.30 18:00:00;   0.2;1021.4;   4.0; 210.0; 316.282;  47.250;   0.202; 24;
76.8060; 166.0424;2; 372.840; 268.614;1981.07.01 00:00:00;   1.0;1019.8;   3.0; 160.0; 317.497;  47.500;   0.202; 24;
76.8160; 166.0617;2; 372.746; 268.541;1981.07.01 06:00:00;   0.5;1017.5;   4.0; 160.0; 318.711;  47.750;   0.202; 24;
76.8260; 166.0810;2; 372.651; 268.468;1981.07.01 12:00:00;   0.2;1016.5;   5.0; 160.0; 319.926;  48.000;   0.202; 24;
76.8393; 166.1204;2; 372.534; 268.338;1981.07.01 18:00:00;   0.3;1013.7;   5.0; 170.0; 321.706;  48.250;   0.297; 34;
76.8525; 166.1598;2; 372.417; 268.208;1981.07.02 00:00:00;   0.7;1011.6;   6.0; 190.0; 323.486;  48.500;   0.297; 34;
76.8658; 166.1994;2; 372.300; 268.078;1981.07.02 06:00:00;   0.2;1007.4;   5.0; 210.0; 325.267;  48.750;   0.297; 34;
76.8790; 166.2390;2; 372.183; 267.948;1981.07.02 12:00:00;   0.5;1002.2;   7.0; 210.0; 327.046;  49.000;   0.297; 34;
76.8857; 166.2567;2; 372.122; 267.888;1981.07.02 18:00:00;   0.0;1001.5;   5.0; 290.0; 327.920;  49.250;   0.146; 31;
76.8925; 166.2745;2; 372.060; 267.827;1981.07.03 00:00:00;   1.0;1001.9;   7.0; 240.0; 328.794;  49.500;   0.146; 31;
76.8992; 166.2922;2; 371.999; 267.767;1981.07.03 06:00:00;   0.3;1000.9;   7.0; 270.0; 329.668;  49.750;   0.146; 31;
76.9060; 166.3100;2; 371.938; 267.707;1981.07.03 12:00:00;   0.4;1001.2;   4.0; 260.0; 330.542;  50.000;   0.146; 31;